TimeEDT,TemperatureF,Dew PointF,Humidity,Sea Level PressureIn,VisibilityMPH,Wind Direction,Wind SpeedMPH,Gust SpeedMPH,PrecipitationIn,Events,Conditions,WindDirDegrees,DateUTC
12:53 AM,46.0,43.0,89,30.10,7.0,WSW,5.8,-,N/A,,Clear,250,2012-10-22 04:53:00
1:53 AM,43.0,41.0,93,30.11,6.0,WSW,5.8,-,0.01,,Clear,240,2012-10-22 05:53:00
2:53 AM,44.1,39.0,82,30.10,10.0,West,5.8,-,N/A,,Clear,260,2012-10-22 06:53:00
3:53 AM,44.1,39.0,82,30.10,10.0,West,3.5,-,N/A,,Clear,270,2012-10-22 07:53:00
4:53 AM,44.1,39.9,85,30.11,9.0,SW,3.5,-,N/A,,Clear,220,2012-10-22 08:53:00
5:53 AM,43.0,39.0,86,30.13,9.0,Calm,Calm,-,N/A,,Clear,0,2012-10-22 09:53:00
6:53 AM,44.6,39.2,81,30.11,9.0,WSW,3.5,-,N/A,,Clear,240,2012-10-22 10:53:00
7:03 AM,44.6,39.2,81,30.11,8.0,Calm,Calm,-,N/A,,Partly Cloudy,0,2012-10-22 11:03:00
7:53 AM,45.0,42.1,90,30.14,7.0,SSW,5.8,-,N/A,,Partly Cloudy,210,2012-10-22 11:53:00
8:53 AM,48.9,46.0,90,30.15,8.0,WSW,3.5,-,N/A,,Partly Cloudy,240,2012-10-22 12:53:00
9:53 AM,54.0,48.9,83,30.15,10.0,WSW,6.9,-,N/A,,Partly Cloudy,240,2012-10-22 13:53:00
10:53 AM,57.0,48.9,74,30.15,10.0,West,9.2,-,N/A,,Scattered Clouds,260,2012-10-22 14:53:00
11:53 AM,60.1,46.9,62,30.15,10.0,West,9.2,-,N/A,,Scattered Clouds,260,2012-10-22 15:53:00
12:53 PM,62.1,45.0,53,30.13,10.0,WSW,10.4,-,N/A,,Scattered Clouds,240,2012-10-22 16:53:00
1:53 PM,63.0,46.0,54,30.12,10.0,SSW,8.1,-,N/A,,Scattered Clouds,200,2012-10-22 17:53:00
2:53 PM,63.0,45.0,52,30.10,10.0,SW,6.9,-,N/A,,Scattered Clouds,230,2012-10-22 18:53:00
3:53 PM,63.0,44.1,50,30.08,10.0,South,9.2,-,N/A,,Scattered Clouds,190,2012-10-22 19:53:00
4:53 PM,62.1,42.1,48,30.08,10.0,SW,10.4,-,N/A,,Scattered Clouds,230,2012-10-22 20:53:00
5:53 PM,59.0,43.0,55,30.09,10.0,SW,6.9,-,N/A,,Scattered Clouds,220,2012-10-22 21:53:00
6:53 PM,57.0,45.0,64,30.09,10.0,SSW,3.5,-,N/A,,Scattered Clouds,210,2012-10-22 22:53:00
7:53 PM,52.0,44.1,74,30.09,10.0,Calm,Calm,-,N/A,,Mostly Cloudy,0,2012-10-22 23:53:00
8:53 PM,50.0,44.1,80,30.09,10.0,NE,4.6,-,N/A,,Scattered Clouds,50,2012-10-23 00:53:00
9:53 PM,50.0,44.1,80,30.07,10.0,East,4.6,-,N/A,,Partly Cloudy,100,2012-10-23 01:53:00
10:53 PM,50.0,43.0,77,30.07,10.0,Calm,Calm,-,N/A,,Scattered Clouds,0,2012-10-23 02:53:00
11:53 PM,48.9,44.1,83,30.06,10.0,Calm,Calm,-,N/A,,Scattered Clouds,0,2012-10-23 03:53:00